Location: Unspecified
(0.0000°N, 0.0000°E)
Time: 21:24:01

Vanguard 2 Rocket - Pass Details

Date: 10 December 2017
Orbit: 554 x 3327 km, 32.9° (Epoch: 22 March)

Event Time Altitude Azimuth Distance (km) Brightness Sun altitude
Rises 23:36:45 0° 314° (NW) 6,959 - -66.7°
Reaches altitude 10° 23:43:26 10° 329° (NNW) 6,180 - -66.9°
Maximum altitude 23:57:20 22° 13° (NNE) 5,251 - -67.0°
Drops below altitude 10° 00:10:05 10° 57° (ENE) 5,693 - -66.6°
Exits shadow 00:14:41 - 69° (ENE) 6,180 11.1 -66.4°
Sets 00:15:44 0° 72° (ENE) 6,311 11.2 -66.4°
